This is the latest recevied weather packets stored in our database for station/object KG5WBN. If no packets are shown the sender has not sent any weather packets the latest 10 day(s).
| Time | Temp. | Humidity | Pressure | Rain* | Wind** | Luminosity | Snow |
|---|---|---|---|---|---|---|---|
| 1788030087 | 34.44° C | 42% | 1015.6 hPa | 0 mm | - | 255 W/m² | - |
| 1788029786 | 34.44° C | 42% | 1015.9 hPa | 0 mm | - | 358 W/m² | - |
| 1788029481 | 34.44° C | 42% | 1015.9 hPa | 0 mm | - | 291 W/m² | - |
| 1788029180 | 33.89° C | 43% | 1015.9 hPa | 0 mm | - | 391 W/m² | - |
| 1788028875 | 33.89° C | 43% | 1015.9 hPa | 0 mm | - | 358 W/m² | - |
| 1788028569 | 33.33° C | 43% | 1016.3 hPa | 0 mm | - | 316 W/m² | - |
| 1788028265 | 33.89° C | 43% | 1015.9 hPa | 0 mm | - | 301 W/m² | - |
| 1788027961 | 33.89° C | 42% | 1015.9 hPa | 0 mm | - | 298 W/m² | - |
| 1788027661 | 33.89° C | 42% | 1015.9 hPa | 0 mm | - | 373 W/m² | - |
| 1788027355 | 33.89° C | 43% | 1015.9 hPa | 0 mm | - | 356 W/m² | - |
| 1788027050 | 34.44° C | 42% | 1015.9 hPa | 0 mm | - | 385 W/m² | - |
| 1788026749 | 34.44° C | 42% | 1015.9 hPa | 0 mm | - | 383 W/m² | - |
| 1788026446 | 33.33° C | 43% | 1015.9 hPa | 0 mm | - | 375 W/m² | - |
| 1788026140 | 32.78° C | 44% | 1016.3 hPa | 0 mm | - | 358 W/m² | - |
| 1788025838 | 33.33° C | 43% | 1016.3 hPa | 0 mm | - | 356 W/m² | - |
| 1788025533 | 33.33° C | 44% | 1016.3 hPa | 0 mm | - | 355 W/m² | - |
| 1788025227 | 33.33° C | 43% | 1016.3 hPa | 0 mm | - | 314 W/m² | - |
| 1788024922 | 32.78° C | 44% | 1016.3 hPa | 0 mm | - | 257 W/m² | - |
| 1788024618 | 33.33° C | 44% | 1016.6 hPa | 0 mm | - | 220 W/m² | - |
| 1788024313 | 32.22° C | 44% | 1016.6 hPa | 0 mm | - | 262 W/m² | - |
| 1788024009 | 32.78° C | 44% | 1016.6 hPa | 0 mm | - | 179 W/m² | - |
| 1788023704 | 32.78° C | 44% | 1016.9 hPa | 0 mm | - | 224 W/m² | - |
| 1788023399 | 33.33° C | 44% | 1016.9 hPa | 0 mm | - | 193 W/m² | - |
| 1788023098 | 33.89° C | 43% | 1016.9 hPa | 0 mm | - | 324 W/m² | - |
| 1788022791 | 33.33° C | 43% | 1016.6 hPa | 0 mm | - | 322 W/m² | - |
* Rain latest hour (hover to see other rain measurements)
** Current wind speed in m/s (hover to see current wind gust speed)